Weather in Saratan

Russia / Altai Republic     50°31′16″N   88°15′47″E
temp.,
°C
wind,
m/s
gust,
m/s
humid.,
%
clouds,
%
prec.,
mm/h
press.,
hPa
HPBL,
m
18 may, wed
wed1801:00+6se11704 0.2 101510
04:00+5se11700 0.0 101610
07:00+8ne00590 0.0 1016103
10:00+15n11352 0.0 10141615
13:00+18nw11245 0.0 10122769
16:00+18nw2222100 0.0 10112932
19:00+17ese222671 0.0 10111778
22:00+11e114686 0.0 101412
19 may, thu
thu1901:00+8ese11525 0.0 101510
04:00+7se11530 0.0 101511
07:00+11sse11434 0.0 101498
10:00+18w13270 0.0 10121765
13:00+21w23184 0.0 10103284
16:00+20wnw5419100 0.0 10093181
19:00+18wnw4425100 0.0 10092825
22:00+12wnw395261 0.0 1014359
20 may, fri
fri2001:00+9nw2673100 0.1 1016629
04:00+8sse117975 0.3 101686
07:00+9se00700 0.3 1016211
10:00+15w134030 0.0 10141818
13:00+14nw454494 0.6 10141854
16:00+15wnw573649 0.5 10132353
19:00+14nw683910 0.5 10141553
22:00+8nnw11551 0.0 101710
21 may, sat
sat2101:00+5nw11710 0.0 101910
04:00+4e11820 0.0 101910
07:00+8se12610 0.0 1018162
10:00+15ne12335 0.0 10151168
13:00+21se01180 0.0 10111990
16:00+23ssw12130 0.0 10082773
19:00+21sw02130 0.0 10072125
22:00+13ese112676 0.0 100911
22 may, sun
sun2201:00+11se112995 0.0 100911
04:00+11se2235100 0.0 100816
07:00+13sse1237100 0.0 100777
10:00+18ssw6825100 0.0 10062492
13:00+18ese0429100 0.0 10071629
16:00+16n233995 0.1 10081627
19:00+16nnw2342100 0.1 10091215
22:00+12ese1157100 0.0 101111